This demonstration page uses our WeatherBlox Daily Observations layout. Learn more.

Left ArrowRight Arrow

39.01783, -85.05884

Hourly Observations for December 11, 2017

Temp ( °F °C ) Dew Point ( °F °C ) Humidity (%) Winds ( mph kmh ) Pressure ( in mb ) Visibility ( mi km ) Precip ( " mm )
12:52 am 00:52 Clear 27 -2.8 22 -5.6 81 81 W 8 13 30.09 1019 10 16 0.00 0.00
1:52 am 01:52 Clear 26 -3.3 22 -5.6 84 84 W 7 11 30.10 1019 10 16 0.00 0.00
2:52 am 02:52 Clear 28 -2.2 22 -5.6 78 78 W 6 9 30.10 1019 10 16 0.00 0.00
3:52 am 03:52 Clear 28 -2.2 23 -5 81 81 W 6 9 30.10 1019 10 16 0.00 0.00
4:52 am 04:52 Clear 23 -5 20 -6.7 88 88 WSW 3 6 30.11 1020 10 16 0.00 0.00
5:52 am 05:52 Clear 22 -5.6 21 -6.1 96 96 Calm 30.11 1020 10 16 0.00 0.00
6:52 am 06:52 Clear 20 -6.7 18 -7.8 92 92 SSE 3 6 30.10 1019 9 14 0.00 0.00
7:52 am 07:52 Mostly Cloudy 23 -5 22 -5.6 96 96 SSW 3 6 30.10 1019 7 11 0.00 0.00
8:52 am 08:52 Cloudy 27 -2.8 25 -3.9 92 92 S 5 7 30.07 1018 8 13 0.00 0.00
9:52 am 09:52 Mostly Cloudy 30 -1.1 26 -3.3 85 85 S 5 7 30.06 1018 9 14 0.00 0.00
10:52 am 10:52 Mostly Cloudy 34 1.1 26 -3.3 73 73 SSW 9 15 30.02 1017 10 16 0.00 0.00
11:52 am 11:52 Mostly Cloudy 37 2.8 27 -2.8 67 67 SW 13 20 30.00 1016 10 16 0.00 0.00
12:52 pm 12:52 Mostly Cloudy 40 4.4 28 -2.2 63 63 SSW 10 17 29.93 1014 10 16 0.00 0.00
1:52 pm 13:52 Mostly Cloudy 44 6.7 29 -1.7 55 55 SSW 12 19 29.86 1011 10 16 0.00 0.00
2:52 pm 14:52 Mostly Cloudy 45 7.2 29 -1.7 54 54 S 8 13 29.82 1010 10 16 0.00 0.00
3:52 pm 15:52 Cloudy 45 7.2 30 -1.1 56 56 S 12 19 29.78 1008 10 16 0.00 0.00
4:52 pm 16:52 Mostly Cloudy 45 7.2 30 -1.1 56 56 SSE 7 11 29.74 1007 10 16 0.00 0.00
5:52 pm 17:52 Mostly Cloudy 41 5 30 -1.1 65 65 S 6 9 29.74 1007 10 16 0.00 0.00
6:52 pm 18:52 Cloudy 41 5 29 -1.7 62 62 S 7 11 29.72 1006 10 16 0.00 0.00
7:52 pm 19:52 Mostly Clear 43 6.1 30 -1.1 60 60 SSW 13 20 29.69 1006 10 16 0.00 0.00
8:52 pm 20:52 Mostly Clear 46 7.8 31 -0.6 56 56 SW 16 26 29.69 1006 10 16 0.00 0.00
9:52 pm 21:52 Clear 45 7.2 28 -2.2 52 52 W 16 26 29.70 1006 10 16 0.00 0.00
10:52 pm 22:52 Cloudy 44 6.7 27 -2.8 51 51 W 16 26 29.71 1006 10 16 0.00 0.00
11:52 pm 23:52 Cloudy 43 6.1 29 -1.7 58 58 W 18 30 29.72 1007 10 16 0.00 0.00

Powered by AerisWeather